| time (UTC) | temp C | wind direction | speed KPH | gust KPH | rain 1hr cm | rain 24hr cm | rain mn cm | humidity % | barometer mb |
| 20260508005321 | 8 | 22 | 4.8 | 16.1 | 0.00 | 0.25 | 0.15 | 49 | 1007.0 |
| 20260508004517 | 8 | 313 | 4.8 | 16.1 | 0.00 | 0.25 | 0.15 | 49 | 1007.0 |
| 20260508004322 | 8 | 342 | 4.8 | 16.1 | 0.00 | 0.25 | 0.15 | 48 | 1006.9 |
| 20260508003318 | 9 | 345 | 4.8 | 17.7 | 0.00 | 0.25 | 0.15 | 47 | 1006.7 |
| 20260508003039 | 8 | 321 | 6.4 | 19.3 | 0.00 | 0.25 | 0.15 | 47 | 1006.7 |
| 20260508002315 | 9 | 26 | 4.8 | 17.7 | 0.00 | 0.25 | 0.15 | 46 | 1006.5 |
| 20260508001526 | 9 | 5 | 8.0 | 16.1 | 0.00 | 0.25 | 0.15 | 46 | 1006.5 |
| 20260508001322 | 10 | 28 | 4.8 | 14.5 | 0.00 | 0.25 | 0.15 | 46 | 1006.3 |
| 20260508000320 | 10 | 338 | 8.0 | 20.9 | 0.00 | 0.25 | 0.15 | 45 | 1006.2 |
| 20260508000034 | 10 | 360 | 4.8 | 20.9 | 0.00 | 0.25 | 0.15 | 44 | 1006.2 |
| 20260507235324 | 10 | 335 | 6.4 | 17.7 | 0.00 | 0.25 | 0.15 | 43 | 1006.0 |
| 20260507234502 | 10 | 348 | 8.0 | 17.7 | 0.00 | 0.25 | 0.15 | 42 | 1005.9 |
| 20260507234318 | 11 | 344 | 8.0 | 24.1 | 0.00 | 0.25 | 0.15 | 42 | 1005.8 |
| 20260507233312 | 11 | 334 | 14.5 | 24.1 | 0.00 | 0.25 | 0.15 | 40 | 1005.7 |
| 20260507233022 | 11 | 13 | 11.3 | 25.7 | 0.00 | 0.25 | 0.15 | 41 | 1005.7 |
| 20260507232315 | 11 | 340 | 16.1 | 24.1 | 0.00 | 0.25 | 0.15 | 39 | 1005.5 |
| 20260507231556 | 11 | 338 | 9.7 | 25.7 | 0.00 | 0.25 | 0.15 | 40 | 1005.6 |
| 20260507231331 | 12 | 11 | 9.7 | 25.7 | 0.00 | 0.25 | 0.15 | 40 | 1005.5 |
| 20260507230335 | 12 | 19 | 12.9 | 25.7 | 0.00 | 0.25 | 0.15 | 38 | 1005.4 |
| 20260507230015 | 12 | 350 | 12.9 | 24.1 | 0.00 | 0.25 | 0.15 | 39 | 1005.4 |
| 20260507225330 | 12 | 319 | 11.3 | 25.7 | 0.00 | 0.25 | 0.15 | 40 | 1005.2 |
| 20260507224553 | 12 | 355 | 14.5 | 32.2 | 0.00 | 0.25 | 0.15 | 39 | 1005.2 |
| 20260507224352 | 12 | 305 | 17.7 | 32.2 | 0.00 | 0.25 | 0.15 | 39 | 1005.1 |
| 20260507223326 | 12 | 336 | 9.7 | 29.0 | 0.00 | 0.25 | 0.15 | 42 | 1005.0 |
| 20260507223048 | 12 | 355 | 8.0 | 29.0 | 0.00 | 0.25 | 0.15 | 39 | 1005.1 |
| 20260507222321 | 13 | 344 | 9.7 | 24.1 | 0.00 | 0.25 | 0.15 | 40 | 1004.9 |
| 20260507221515 | 13 | 5 | 12.9 | 24.1 | 0.00 | 0.25 | 0.15 | 38 | 1005.0 |
| 20260507221341 | 13 | 310 | 11.3 | 24.1 | 0.00 | 0.25 | 0.15 | 39 | 1004.9 |
| 20260507220315 | 13 | 319 | 11.3 | 20.9 | 0.00 | 0.25 | 0.15 | 37 | 1004.7 |
| 20260507220025 | 13 | 350 | 11.3 | 20.9 | 0.00 | 0.30 | 0.15 | 37 | 1004.9 |
| 20260507215337 | 13 | 308 | 12.9 | 24.1 | 0.00 | 0.30 | 0.15 | 37 | 1004.8 |
| 20260507214530 | 13 | 307 | 11.3 | 25.7 | 0.00 | 0.30 | 0.15 | 36 | 1005.0 |
| 20260507214338 | 13 | 349 | 16.1 | 33.8 | 0.00 | 0.30 | 0.15 | 36 | 1004.8 |
| 20260507213312 | 13 | 38 | 14.5 | 30.6 | 0.00 | 0.30 | 0.15 | 37 | 1004.8 |
| 20260507213044 | 13 | 326 | 16.1 | 30.6 | 0.00 | 0.30 | 0.15 | 37 | 1004.9 |
| 20260507212335 | 13 | 333 | 14.5 | 30.6 | 0.00 | 0.30 | 0.15 | 36 | 1004.8 |
| 20260507211554 | 13 | 322 | 16.1 | 29.0 | 0.00 | 0.30 | 0.15 | 35 | 1004.8 |
| 20260507211313 | 14 | 338 | 16.1 | 29.0 | 0.00 | 0.30 | 0.15 | 35 | 1004.7 |
| 20260507210335 | 14 | 299 | 12.9 | 32.2 | 0.00 | 0.30 | 0.15 | 39 | 1004.7 |
| 20260507210055 | 14 | 297 | 19.3 | 32.2 | 0.00 | 0.48 | 0.15 | 36 | 1004.7 |
| 20260507205330 | 14 | 291 | 17.7 | 33.8 | 0.00 | 0.48 | 0.15 | 37 | 1004.5 |
| 20260507204523 | 14 | 277 | 11.3 | 33.8 | 0.00 | 0.48 | 0.15 | 36 | 1004.6 |
| 20260507204331 | 14 | 309 | 17.7 | 33.8 | 0.00 | 0.48 | 0.15 | 35 | 1004.5 |
| 20260507203324 | 14 | 298 | 20.9 | 38.6 | 0.00 | 0.48 | 0.15 | 35 | 1004.4 |
| 20260507203041 | 14 | 339 | 19.3 | 37.0 | 0.00 | 0.48 | 0.15 | 37 | 1004.5 |
| 20260507202317 | 14 | 340 | 24.1 | 37.0 | 0.00 | 0.48 | 0.15 | 34 | 1004.2 |
| 20260507201508 | 14 | 265 | 20.9 | 35.4 | 0.00 | 0.48 | 0.15 | 34 | 1004.3 |
| 20260507201317 | 14 | 327 | 19.3 | 35.4 | 0.00 | 0.48 | 0.15 | 36 | 1004.3 |
| 20260507200312 | 14 | 273 | 16.1 | 37.0 | 0.00 | 0.48 | 0.15 | 37 | 1004.4 |
| 20260507200028 | 14 | 340 | 17.7 | 37.0 | 0.00 | 0.58 | 0.15 | 35 | 1004.5 |
| 20260507195332 | 14 | 321 | 22.5 | 40.2 | 0.00 | 0.58 | 0.15 | 36 | 1004.5 |
| 20260507194556 | 14 | 321 | 12.9 | 32.2 | 0.00 | 0.58 | 0.15 | 40 | 1004.5 |
| 20260507194326 | 14 | 15 | 17.7 | 32.2 | 0.00 | 0.58 | 0.15 | 37 | 1004.3 |
| 20260507193328 | 14 | 5 | 24.1 | 41.8 | 0.00 | 0.58 | 0.15 | 41 | 1004.4 |
| 20260507193011 | 13 | 343 | 12.9 | 22.5 | 0.00 | 0.58 | 0.15 | 45 | 1004.6 |
| 20260507192321 | 13 | 331 | 16.1 | 22.5 | 0.00 | 0.58 | 0.15 | 43 | 1004.6 |
| 20260507191549 | 13 | 310 | 17.7 | 30.6 | 0.00 | 0.58 | 0.15 | 41 | 1004.7 |
| 20260507191340 | 14 | 311 | 19.3 | 30.6 | 0.00 | 0.58 | 0.15 | 42 | 1004.7 |
| 20260507190312 | 14 | 295 | 11.3 | 35.4 | 0.00 | 0.58 | 0.15 | 44 | 1004.6 |
| 20260507190037 | 14 | 341 | 20.9 | 35.4 | 0.00 | 0.86 | 0.15 | 41 | 1004.9 |
| 20260507185333 | 14 | 306 | 16.1 | 27.4 | 0.00 | 0.86 | 0.15 | 41 | 1004.7 |
| 20260507184506 | 14 | 9 | 9.7 | 32.2 | 0.00 | 0.86 | 0.15 | 43 | 1004.8 |
| 20260507184325 | 14 | 279 | 16.1 | 35.4 | 0.00 | 0.86 | 0.15 | 41 | 1004.8 |
| 20260507183324 | 14 | 314 | 17.7 | 29.0 | 0.00 | 0.86 | 0.15 | 47 | 1004.8 |
| 20260507183042 | 14 | 312 | 16.1 | 32.2 | 0.00 | 0.86 | 0.15 | 50 | 1004.8 |
| 20260507182318 | 14 | 261 | 14.5 | 37.0 | 0.00 | 0.86 | 0.15 | 52 | 1004.7 |
| 20260507181510 | 14 | 283 | 22.5 | 41.8 | 0.00 | 0.86 | 0.15 | 53 | 1004.9 |
| 20260507181319 | 14 | 295 | 16.1 | 29.0 | 0.00 | 0.86 | 0.15 | 53 | 1004.8 |
| 20260507180313 | 14 | 309 | 14.5 | 32.2 | 0.00 | 0.86 | 0.15 | 54 | 1004.7 |
| 20260507180028 | 13 | 272 | 17.7 | 32.2 | 0.00 | 0.86 | 0.15 | 53 | 1004.9 |
| 20260507175320 | 15 | 275 | 19.3 | 27.4 | 0.00 | 0.86 | 0.15 | 54 | 1004.9 |
| 20260507174604 | 13 | 279 | 12.9 | 29.0 | 0.00 | 0.86 | 0.15 | 59 | 1005.0 |
| 20260507174312 | 13 | 348 | 17.7 | 29.0 | 0.00 | 0.86 | 0.15 | 58 | 1004.9 |
| 20260507173333 | 13 | 336 | 19.3 | 41.8 | 0.00 | 0.86 | 0.15 | 56 | 1005.0 |
| 20260507173056 | 13 | 322 | 24.1 | 41.8 | 0.00 | 0.86 | 0.15 | 56 | 1005.1 |
| 20260507172326 | 12 | 302 | 8.0 | 25.7 | 0.00 | 0.86 | 0.15 | 57 | 1005.0 |
| 20260507171522 | 13 | 308 | 17.7 | 30.6 | 0.00 | 0.86 | 0.15 | 55 | 1005.1 |
| 20260507171325 | 13 | 290 | 16.1 | 27.4 | 0.00 | 0.86 | 0.15 | 56 | 1005.0 |
| 20260507170341 | 14 | 329 | 12.9 | 22.5 | 0.00 | 0.86 | 0.15 | 57 | 1005.2 |
| 20260507170033 | 13 | 239 | 6.4 | 25.7 | 0.00 | 0.86 | 0.15 | 55 | 1005.2 |
| 20260507165320 | 13 | 272 | 12.9 | 25.7 | 0.00 | 0.86 | 0.15 | 58 | 1005.3 |
| 20260507164550 | 12 | 277 | 11.3 | 25.7 | 0.00 | 0.86 | 0.15 | 60 | 1005.4 |
| 20260507164335 | 13 | 323 | 17.7 | 25.7 | 0.00 | 0.86 | 0.15 | 59 | 1005.3 |
| 20260507163317 | 12 | 314 | 11.3 | 22.5 | 0.00 | 0.86 | 0.15 | 58 | 1005.3 |
| 20260507163054 | 12 | 306 | 8.0 | 22.5 | 0.00 | 0.86 | 0.15 | 58 | 1005.4 |
| 20260507162331 | 13 | 333 | 9.7 | 20.9 | 0.00 | 0.86 | 0.15 | 59 | 1005.4 |
| 20260507161521 | 12 | 334 | 3.2 | 25.7 | 0.00 | 0.86 | 0.15 | 58 | 1005.8 |
| 20260507161334 | 13 | 344 | 9.7 | 25.7 | 0.00 | 0.86 | 0.15 | 58 | 1005.7 |
| 20260507160328 | 13 | 309 | 6.4 | 24.1 | 0.00 | 0.86 | 0.15 | 58 | 1005.8 |
| 20260507160041 | 12 | 338 | 12.9 | 24.1 | 0.00 | 0.86 | 0.15 | 57 | 1005.9 |
| 20260507155328 | 13 | 323 | 12.9 | 25.7 | 0.00 | 0.86 | 0.15 | 56 | 1005.9 |
| 20260507154506 | 13 | 254 | 11.3 | 25.7 | 0.00 | 0.86 | 0.15 | 56 | 1006.1 |
| 20260507154320 | 13 | 294 | 16.1 | 25.7 | 0.00 | 0.86 | 0.15 | 55 | 1006.1 |
| 20260507153315 | 13 | 311 | 8.0 | 17.7 | 0.00 | 0.86 | 0.15 | 58 | 1006.1 |
| 20260507153024 | 13 | 315 | 9.7 | 17.7 | 0.00 | 0.86 | 0.15 | 57 | 1006.2 |
| 20260507152318 | 13 | 360 | 4.8 | 19.3 | 0.00 | 0.86 | 0.15 | 54 | 1006.2 |
| 20260507151554 | 13 | 281 | 4.8 | 17.7 | 0.00 | 0.86 | 0.15 | 59 | 1006.2 |
| 20260507151329 | 13 | 355 | 6.4 | 17.7 | 0.00 | 0.86 | 0.15 | 58 | 1006.1 |
| 20260507150326 | 13 | 318 | 11.3 | 22.5 | 0.00 | 0.86 | 0.15 | 59 | 1006.1 |
| 20260507150007 | 13 | 355 | 11.3 | 22.5 | 0.00 | 0.86 | 0.15 | 58 | 1006.3 |
| 20260507145317 | 13 | 355 | 3.2 | 19.3 | 0.00 | 0.86 | 0.15 | 62 | 1006.2 |
| 20260507144531 | 12 | 270 | 9.7 | 19.3 | 0.00 | 0.86 | 0.15 | 65 | 1006.3 |
| 20260507144335 | 12 | 227 | 9.7 | 17.7 | 0.00 | 0.86 | 0.15 | 64 | 1006.2 |
| 20260507143331 | 12 | 360 | 9.7 | 17.7 | 0.00 | 0.86 | 0.15 | 68 | 1006.4 |
| 20260507143047 | 12 | 287 | 4.8 | 14.5 | 0.00 | 0.86 | 0.15 | 67 | 1006.5 |
| 20260507142321 | 12 | 281 | 9.7 | 22.5 | 0.00 | 0.86 | 0.15 | 67 | 1006.3 |
| 20260507141506 | 11 | 317 | 8.0 | 22.5 | 0.00 | 0.86 | 0.15 | 66 | 1006.6 |
| 20260507141316 | 12 | 10 | 12.9 | 17.7 | 0.00 | 0.86 | 0.15 | 67 | 1006.5 |
| 20260507140337 | 11 | 349 | 6.4 | 16.1 | 0.00 | 0.86 | 0.15 | 70 | 1006.6 |
| 20260507140020 | 11 | 313 | 6.4 | 16.1 | 0.00 | 0.86 | 0.15 | 70 | 1006.7 |
| 20260507135328 | 11 | 340 | 11.3 | 16.1 | 0.00 | 0.86 | 0.15 | 71 | 1006.7 |
| 20260507134549 | 11 | 321 | 6.4 | 17.7 | 0.00 | 0.86 | 0.15 | 72 | 1006.8 |
| 20260507134317 | 11 | 17 | 11.3 | 20.9 | 0.00 | 0.86 | 0.15 | 70 | 1006.6 |
| 20260507133318 | 11 | 334 | 9.7 | 19.3 | 0.00 | 0.86 | 0.15 | 71 | 1006.8 |
| 20260507133002 | 10 | 31 | 9.7 | 19.3 | 0.00 | 0.86 | 0.15 | 71 | 1006.8 |
| 20260507132313 | 11 | 304 | 11.3 | 20.9 | 0.00 | 0.86 | 0.15 | 71 | 1006.6 |
| 20260507131536 | 10 | 338 | 11.3 | 22.5 | 0.00 | 0.86 | 0.15 | 72 | 1006.7 |
| 20260507131350 | 10 | 310 | 11.3 | 22.5 | 0.00 | 0.86 | 0.15 | 73 | 1006.7 |
| 20260507130318 | 10 | 347 | 9.7 | 22.5 | 0.00 | 0.86 | 0.15 | 74 | 1006.6 |
| 20260507130020 | 10 | 344 | 6.4 | 22.5 | 0.00 | 0.86 | 0.15 | 72 | 1006.7 |
| 20260507125314 | 10 | 327 | 11.3 | 19.3 | 0.00 | 0.86 | 0.15 | 73 | 1006.6 |
| 20260507124548 | 9 | 15 | 9.7 | 22.5 | 0.00 | 0.86 | 0.15 | 74 | 1006.6 |
| 20260507124349 | 10 | 355 | 12.9 | 22.5 | 0.00 | 0.86 | 0.15 | 74 | 1006.7 |
| 20260507123319 | 9 | 350 | 8.0 | 17.7 | 0.00 | 0.86 | 0.15 | 77 | 1006.9 |
| 20260507123035 | 8 | 281 | 8.0 | 20.9 | 0.00 | 0.86 | 0.15 | 76 | 1006.9 |
| 20260507122312 | 8 | 324 | 12.9 | 22.5 | 0.00 | 0.86 | 0.15 | 75 | 1006.9 |
| 20260507121608 | 8 | 321 | 8.0 | 19.3 | 0.00 | 0.86 | 0.15 | 77 | 1007.0 |
| 20260507121311 | 8 | 326 | 8.0 | 19.3 | 0.00 | 0.86 | 0.15 | 78 | 1007.0 |
| 20260507120322 | 8 | 332 | 9.7 | 25.7 | 0.00 | 0.86 | 0.15 | 78 | 1007.0 |
| 20260507120029 | 8 | 15 | 6.4 | 25.7 | 0.00 | 0.86 | 0.15 | 78 | 1007.1 |
| 20260507115320 | 8 | 336 | 12.9 | 25.7 | 0.00 | 0.86 | 0.15 | 78 | 1007.0 |
| 20260507114543 | 7 | 342 | 11.3 | 25.7 | 0.00 | 0.86 | 0.15 | 79 | 1007.1 |
| 20260507114337 | 8 | 306 | 9.7 | 25.7 | 0.00 | 0.86 | 0.15 | 78 | 1006.8 |
| 20260507113325 | 7 | 321 | 11.3 | 22.5 | 0.00 | 0.86 | 0.15 | 81 | 1007.0 |
| 20260507113040 | 7 | 355 | 9.7 | 22.5 | 0.00 | 0.86 | 0.15 | 82 | 1007.0 |
| 20260507112317 | 7 | 343 | 9.7 | 17.7 | 0.00 | 0.86 | 0.15 | 85 | 1006.9 |
| 20260507111507 | 6 | 340 | 9.7 | 17.7 | 0.00 | 0.86 | 0.15 | 88 | 1006.9 |
| 20260507111338 | 6 | 313 | 8.0 | 17.7 | 0.00 | 0.86 | 0.15 | 88 | 1006.9 |